SEDNA-1 (60580 NORAD) Tracking and Keplerian Element Data

This shows tracking and keplerian element data for the satellite.

Feedback or suggestion? Click here.




ElementValue
Catalog60580
NameSEDNA-1
Epoch Orbit849
Epoch Day286.79314825
Epoch Year2024
RAAN1.4008
Inclination97.7418
Eccentricity0.000609
Argument of Perigee303.6316
Mean Anonmoly56.4322
Mean Motion14.94314071
Decay Rate0.00017337
L11 60580U 24149DS 24286.79314825 .00017337 00000+0 16151-2 0 9996
L22 60580 97.7418 1.4008 0006090 303.6316 56.4322 14.94314071 8494



Live tracking and technical data element details for SEDNA-1 (NORAD 60580). SEDNA-1 can be tracked NOW for your location showing map with azimuth and elevation plus other details from your city location.







IsCatalogInMostPopularTable: catalog: 60580, numindb: 4
Update: records affected: 1



GetName: 60580 SEDNA-1

Hit Count: updated at: Fri, 06 Dec 2024 10:18:55 GMT